CRQ905 CYUL-CYVO

Flight info

Callsign CRQ905
Flight time 1h 5m
Altitude 20000
Route KESKA DCT BIPKO Q997 SASID DCT PELSU DCT YVO
Aircraft DH8A/M-SDFGR/S

Departure

Time 2026-04-26 22:05
Airport Montreal / Pierre Elliott Trudeau International Airport (CYUL)

Arrival

Time 2026-04-26 23:10
Airport Val-d'Or Airport (CYVO)
Time Latitude Longitude Altitude Speed Heading
2026-04-26 21:43 45.45819 -73.74456 101 ft 0 kts 335°
2026-04-26 21:58 45.45804 -73.74447 100 ft 4 kts 347°
2026-04-26 21:58 45.45780 -73.74448 100 ft 4 kts 38°
2026-04-26 21:58 45.45772 -73.74459 100 ft 0 kts 58°
2026-04-26 22:01 45.45776 -73.74450 100 ft 7 kts 59°
2026-04-26 22:01 45.45779 -73.74442 100 ft 8 kts 59°
2026-04-26 22:02 45.45807 -73.74386 100 ft 5 kts 47°
2026-04-26 22:02 45.45838 -73.74346 100 ft 11 kts 40°
2026-04-26 22:02 45.45912 -73.74288 99 ft 8 kts
2026-04-26 22:02 45.45952 -73.74280 99 ft 10 kts 32°
2026-04-26 22:03 45.45941 -73.74202 99 ft 8 kts 135°
2026-04-26 22:03 45.45915 -73.74154 99 ft 0 kts 127°
2026-04-26 22:04 45.45865 -73.74058 100 ft 9 kts 107°
2026-04-26 22:05 45.45884 -73.73987 100 ft 13 kts 41°
2026-04-26 22:05 45.46113 -73.73683 105 ft 93 kts 43°
2026-04-26 22:05 45.46759 -73.72843 282 ft 143 kts 42°
2026-04-26 22:05 45.47541 -73.71893 937 ft 147 kts 40°
2026-04-26 22:06 45.48346 -73.70960 1635 ft 155 kts 40°
2026-04-26 22:06 45.49232 -73.69934 2101 ft 173 kts 40°
2026-04-26 22:06 45.50190 -73.68793 2559 ft 186 kts 42°
2026-04-26 22:06 45.51151 -73.67578 3268 ft 180 kts 38°
2026-04-26 22:07 45.52310 -73.66991 3948 ft 182 kts 360°
2026-04-26 22:07 45.53481 -73.67620 4598 ft 185 kts 320°
2026-04-26 22:07 45.54070 -73.69200 5385 ft 184 kts 283°
2026-04-26 22:07 45.54118 -73.71046 6043 ft 189 kts 273°
2026-04-26 22:08 45.54236 -73.72898 6715 ft 187 kts 287°
2026-04-26 22:08 45.54614 -73.74757 6961 ft 209 kts 291°
2026-04-26 22:08 45.55004 -73.76833 7317 ft 219 kts 287°
2026-04-26 22:08 45.55380 -73.78937 7832 ft 220 kts 289°
2026-04-26 22:09 45.55760 -73.81097 8267 ft 223 kts 286°
2026-04-26 22:09 45.56112 -73.83243 8612 ft 226 kts 286°
2026-04-26 22:09 45.56481 -73.85428 9004 ft 228 kts 286°
2026-04-26 22:09 45.56851 -73.87645 9398 ft 231 kts 286°
2026-04-26 22:10 45.57228 -73.89882 9776 ft 233 kts 285°
2026-04-26 22:10 45.57614 -73.92146 10155 ft 235 kts 286°
2026-04-26 22:10 45.58014 -73.94424 10516 ft 237 kts 286°
2026-04-26 22:10 45.58400 -73.96713 10880 ft 238 kts 285°
2026-04-26 22:11 45.58797 -73.99015 11258 ft 239 kts 286°
2026-04-26 22:11 45.59197 -74.01330 11636 ft 241 kts 285°
2026-04-26 22:11 45.59589 -74.03660 12021 ft 242 kts 286°
2026-04-26 22:11 45.59992 -74.05999 12423 ft 243 kts 286°
2026-04-26 22:12 45.60397 -74.08350 12810 ft 244 kts 286°
2026-04-26 22:12 45.60795 -74.10716 13221 ft 246 kts 285°
2026-04-26 22:12 45.61200 -74.13096 13607 ft 247 kts 286°
2026-04-26 22:12 45.61696 -74.15440 14007 ft 247 kts 300°
2026-04-26 22:13 45.62732 -74.17325 14374 ft 245 kts 316°
2026-04-26 22:13 45.63864 -74.19158 14725 ft 247 kts 310°
2026-04-26 22:13 45.64861 -74.21166 15094 ft 248 kts 306°
2026-04-26 22:13 45.65835 -74.23205 15469 ft 248 kts 307°
2026-04-26 22:14 45.66841 -74.25218 15834 ft 249 kts 308°
2026-04-26 22:14 45.67870 -74.27223 16200 ft 251 kts 309°
2026-04-26 22:14 45.68896 -74.29245 16589 ft 251 kts 308°
2026-04-26 22:14 45.69925 -74.31281 16972 ft 252 kts 308°
2026-04-26 22:15 45.70960 -74.33315 17344 ft 254 kts 308°
2026-04-26 22:15 45.72000 -74.35371 17728 ft 255 kts 308°
2026-04-26 22:15 45.73040 -74.37430 18110 ft 256 kts 308°
2026-04-26 22:15 45.74072 -74.39521 18480 ft 258 kts 307°
2026-04-26 22:16 45.75115 -74.41615 18814 ft 259 kts 308°
2026-04-26 22:16 45.76163 -74.43709 19169 ft 259 kts 307°
2026-04-26 22:16 45.77206 -74.45817 19531 ft 259 kts 308°
2026-04-26 22:16 45.78252 -74.47930 19866 ft 261 kts 308°
2026-04-26 22:17 45.79329 -74.50080 19990 ft 271 kts 308°
2026-04-26 22:17 45.80444 -74.52312 20032 ft 280 kts 308°
2026-04-26 22:17 45.81579 -74.54588 20035 ft 288 kts 308°
2026-04-26 22:17 45.82760 -74.56947 20041 ft 294 kts 308°
2026-04-26 22:18 45.83950 -74.59356 20028 ft 298 kts 304°
2026-04-26 22:18 45.84721 -74.62135 20025 ft 304 kts 284°
2026-04-26 22:18 45.84992 -74.65164 20038 ft 306 kts 280°
2026-04-26 22:18 45.85393 -74.68156 20047 ft 306 kts 288°
2026-04-26 22:19 45.86019 -74.71073 20035 ft 307 kts 290°
2026-04-26 22:19 45.86582 -74.74030 20029 ft 308 kts 286°
2026-04-26 22:19 45.87049 -74.77036 20028 ft 309 kts 285°
2026-04-26 22:19 45.87535 -74.80032 20025 ft 309 kts 287°
2026-04-26 22:20 45.88059 -74.83018 20024 ft 309 kts 287°
2026-04-26 22:20 45.88585 -74.86007 20022 ft 309 kts 287°
2026-04-26 22:20 45.89095 -74.89004 20019 ft 309 kts 287°
2026-04-26 22:20 45.89598 -74.91998 20019 ft 309 kts 287°
2026-04-26 22:21 45.90111 -74.94996 20021 ft 309 kts 288°
2026-04-26 22:21 45.90658 -74.97934 20022 ft 308 kts 288°
2026-04-26 22:21 45.91180 -75.00923 20013 ft 309 kts 285°
2026-04-26 22:21 45.91610 -75.03948 20019 ft 309 kts 285°
2026-04-26 22:22 45.92094 -75.06946 20014 ft 308 kts 287°
2026-04-26 22:22 45.92610 -75.09930 20021 ft 308 kts 287°
2026-04-26 22:22 45.93130 -75.12911 20017 ft 308 kts 287°
2026-04-26 22:22 45.93648 -75.15894 20017 ft 308 kts 287°
2026-04-26 22:23 45.94148 -75.18890 20017 ft 308 kts 287°
2026-04-26 22:23 45.94642 -75.21881 20020 ft 307 kts 287°
2026-04-26 22:23 45.95143 -75.24866 20014 ft 307 kts 287°
2026-04-26 22:23 45.95645 -75.27853 20007 ft 307 kts 287°
2026-04-26 22:24 45.96142 -75.30840 20013 ft 307 kts 287°
2026-04-26 22:24 45.96632 -75.33787 20014 ft 307 kts 287°
2026-04-26 22:24 45.97128 -75.36772 20008 ft 307 kts 287°
2026-04-26 22:24 45.97618 -75.39741 20096 ft 304 kts 287°
2026-04-26 22:25 45.98103 -75.42686 20190 ft 302 kts 287°
2026-04-26 22:25 45.98592 -75.45630 20192 ft 303 kts 287°
2026-04-26 22:25 45.99079 -75.48584 20192 ft 304 kts 287°
2026-04-26 22:25 45.99569 -75.51549 20189 ft 305 kts 287°
2026-04-26 22:26 46.00057 -75.54522 20188 ft 305 kts 287°
2026-04-26 22:26 46.00545 -75.57494 20194 ft 306 kts 287°
2026-04-26 22:26 46.01033 -75.60469 20191 ft 306 kts 287°
2026-04-26 22:26 46.01520 -75.63446 20192 ft 306 kts 287°
2026-04-26 22:27 46.02007 -75.66426 20191 ft 306 kts 287°
2026-04-26 22:27 46.02491 -75.69404 20190 ft 306 kts 287°
2026-04-26 22:27 46.02978 -75.72387 20193 ft 306 kts 288°
2026-04-26 22:27 46.03839 -75.75089 20213 ft 300 kts 311°
2026-04-26 22:28 46.05438 -75.77031 20211 ft 298 kts 331°
2026-04-26 22:28 46.07218 -75.78483 20197 ft 299 kts 329°
2026-04-26 22:28 46.08938 -75.80176 20192 ft 299 kts 326°
2026-04-26 22:28 46.10633 -75.81925 20198 ft 299 kts 327°
2026-04-26 22:29 46.12360 -75.83603 20199 ft 299 kts 328°
2026-04-26 22:29 46.14100 -75.85251 20205 ft 299 kts 328°
2026-04-26 22:29 46.15840 -75.86908 20203 ft 300 kts 328°
2026-04-26 22:29 46.17578 -75.88570 20202 ft 300 kts 328°
2026-04-26 22:30 46.19320 -75.90237 20200 ft 300 kts 328°
2026-04-26 22:30 46.21067 -75.91909 20201 ft 300 kts 328°
2026-04-26 22:30 46.22809 -75.93579 20200 ft 301 kts 328°
2026-04-26 22:30 46.24551 -75.95254 20194 ft 301 kts 328°
2026-04-26 22:31 46.26289 -75.96935 20195 ft 301 kts 328°
2026-04-26 22:31 46.28008 -75.98596 20194 ft 301 kts 328°
2026-04-26 22:31 46.29752 -76.00281 20191 ft 301 kts 328°
2026-04-26 22:31 46.31461 -76.01935 20194 ft 301 kts 328°
2026-04-26 22:32 46.33201 -76.03618 20191 ft 301 kts 328°
2026-04-26 22:32 46.34941 -76.05305 20198 ft 301 kts 328°
2026-04-26 22:32 46.36680 -76.06991 20193 ft 301 kts 327°
2026-04-26 22:32 46.38421 -76.08680 20194 ft 301 kts 327°
2026-04-26 22:33 46.40162 -76.10370 20193 ft 301 kts 328°
2026-04-26 22:33 46.43648 -76.13759 20193 ft 302 kts 327°
2026-04-26 22:33 46.45391 -76.15456 20190 ft 302 kts 327°
2026-04-26 22:34 46.47135 -76.17154 20197 ft 302 kts 327°
2026-04-26 22:34 46.48882 -76.18858 20196 ft 302 kts 327°
2026-04-26 22:34 46.50627 -76.20561 20195 ft 302 kts 327°
2026-04-26 22:34 46.52373 -76.22265 20206 ft 302 kts 327°
2026-04-26 22:35 46.54121 -76.23975 20202 ft 303 kts 327°
2026-04-26 22:35 46.55868 -76.25684 20202 ft 303 kts 327°
2026-04-26 22:35 46.57615 -76.27395 20203 ft 303 kts 327°
2026-04-26 22:35 46.59363 -76.29109 20201 ft 303 kts 327°
2026-04-26 22:36 46.61112 -76.30824 20207 ft 303 kts 327°
2026-04-26 22:36 46.62837 -76.32519 20206 ft 303 kts 327°
2026-04-26 22:36 46.64587 -76.34241 20205 ft 303 kts 327°
2026-04-26 22:36 46.66332 -76.35960 20202 ft 303 kts 327°
2026-04-26 22:37 46.68080 -76.37682 20202 ft 303 kts 327°
2026-04-26 22:37 46.69823 -76.39401 20206 ft 303 kts 327°
2026-04-26 22:37 46.71571 -76.41126 20210 ft 303 kts 327°
2026-04-26 22:37 46.73321 -76.42854 20208 ft 303 kts 327°
2026-04-26 22:38 46.75068 -76.44582 20207 ft 303 kts 327°
2026-04-26 22:38 46.76813 -76.46310 20212 ft 303 kts 327°
2026-04-26 22:38 46.78557 -76.48040 20210 ft 303 kts 327°
2026-04-26 22:38 46.80281 -76.49752 20210 ft 303 kts 327°
2026-04-26 22:39 46.82026 -76.51483 20213 ft 303 kts 327°
2026-04-26 22:39 46.83776 -76.53213 20218 ft 303 kts 327°
2026-04-26 22:39 46.85521 -76.54941 20221 ft 303 kts 327°
2026-04-26 22:39 46.87266 -76.56675 20218 ft 303 kts 327°
2026-04-26 22:40 46.89015 -76.58406 20221 ft 303 kts 328°
2026-04-26 22:40 46.90798 -76.60063 20222 ft 303 kts 329°
2026-04-26 22:40 46.92594 -76.61692 20222 ft 304 kts 329°
2026-04-26 22:40 46.94374 -76.63355 20222 ft 304 kts 328°
2026-04-26 22:41 46.96151 -76.65024 20222 ft 303 kts 328°
2026-04-26 22:41 46.97926 -76.66697 20226 ft 304 kts 328°
2026-04-26 22:41 46.99706 -76.68375 20219 ft 304 kts 328°
2026-04-26 22:41 47.01480 -76.70050 20219 ft 304 kts 328°
2026-04-26 22:42 47.03255 -76.71730 20224 ft 304 kts 328°
2026-04-26 22:42 47.05035 -76.73410 20231 ft 304 kts 328°
2026-04-26 22:42 47.06792 -76.75055 20226 ft 304 kts 328°
2026-04-26 22:42 47.08592 -76.76755 20225 ft 304 kts 328°
2026-04-26 22:43 47.10348 -76.78415 20224 ft 304 kts 328°
2026-04-26 22:43 47.12128 -76.80086 20229 ft 304 kts 328°
2026-04-26 22:43 47.13907 -76.81773 20225 ft 304 kts 328°
2026-04-26 22:43 47.15686 -76.83455 20220 ft 304 kts 328°
2026-04-26 22:44 47.17467 -76.85133 20229 ft 304 kts 328°
2026-04-26 22:44 47.19245 -76.86824 20230 ft 304 kts 328°
2026-04-26 22:44 47.21030 -76.88513 20222 ft 304 kts 328°
2026-04-26 22:44 47.22812 -76.90197 20215 ft 305 kts 328°
2026-04-26 22:45 47.24613 -76.91900 19815 ft 308 kts 328°
2026-04-26 22:45 47.26417 -76.93590 19428 ft 302 kts 329°
2026-04-26 22:45 47.28172 -76.95227 19032 ft 295 kts 329°
2026-04-26 22:45 47.29887 -76.96840 18633 ft 290 kts 328°
2026-04-26 22:46 47.31564 -76.98447 18174 ft 286 kts 328°
2026-04-26 22:46 47.33199 -77.00015 17718 ft 283 kts 328°
2026-04-26 22:46 47.34844 -77.01581 17252 ft 280 kts 328°
2026-04-26 22:46 47.36473 -77.03133 16791 ft 277 kts 328°
2026-04-26 22:47 47.38084 -77.04673 16323 ft 275 kts 328°
2026-04-26 22:47 47.39679 -77.06201 15918 ft 272 kts 328°
2026-04-26 22:47 47.41259 -77.07712 15526 ft 268 kts 328°
2026-04-26 22:47 47.42818 -77.09206 15140 ft 266 kts 328°
2026-04-26 22:48 47.44360 -77.10687 14754 ft 263 kts 328°
2026-04-26 22:48 47.45889 -77.12157 14375 ft 261 kts 328°
2026-04-26 22:48 47.47410 -77.13619 13996 ft 259 kts 328°
2026-04-26 22:48 47.48915 -77.15069 13576 ft 258 kts 328°
2026-04-26 22:49 47.50411 -77.16512 13156 ft 256 kts 328°
2026-04-26 22:49 47.51900 -77.17952 12753 ft 254 kts 328°
2026-04-26 22:49 47.53377 -77.19381 12350 ft 253 kts 328°
2026-04-26 22:49 47.54825 -77.20782 11962 ft 251 kts 328°
2026-04-26 22:50 47.56278 -77.22193 11571 ft 247 kts 328°
2026-04-26 22:50 47.57688 -77.23572 11174 ft 239 kts 329°
2026-04-26 22:50 47.59076 -77.24889 10774 ft 234 kts 329°
2026-04-26 22:50 47.60426 -77.26204 10372 ft 230 kts 328°
2026-04-26 22:51 47.61757 -77.27494 9961 ft 227 kts 329°
2026-04-26 22:51 47.63075 -77.28755 9517 ft 224 kts 328°
2026-04-26 22:51 47.64370 -77.30022 9084 ft 222 kts 328°
2026-04-26 22:51 47.65707 -77.31112 8664 ft 219 kts 344°
2026-04-26 22:52 47.66688 -77.31443 8395 ft 217 kts 352°
2026-04-26 22:52 47.68181 -77.31775 7980 ft 217 kts 353°
2026-04-26 22:52 47.70163 -77.32198 7446 ft 217 kts 353°
2026-04-26 22:52 47.71649 -77.32546 7047 ft 217 kts 350°
2026-04-26 22:53 47.73120 -77.33032 6656 ft 217 kts 348°
2026-04-26 22:53 47.74117 -77.33379 6380 ft 216 kts 348°
2026-04-26 22:53 47.75564 -77.33896 6053 ft 212 kts 348°
2026-04-26 22:53 47.76988 -77.34422 5724 ft 209 kts 348°
2026-04-26 22:54 47.78374 -77.34948 5401 ft 207 kts 348°
2026-04-26 22:54 47.79763 -77.35483 5076 ft 205 kts 348°
2026-04-26 22:54 47.81139 -77.36018 4746 ft 204 kts 348°
2026-04-26 22:54 47.82503 -77.36556 4418 ft 203 kts 348°
2026-04-26 22:55 47.83870 -77.37095 4231 ft 207 kts 348°
2026-04-26 22:55 47.85277 -77.37644 4182 ft 212 kts 348°
2026-04-26 22:55 47.86718 -77.38208 4166 ft 215 kts 349°
2026-04-26 22:55 47.88196 -77.38595 4171 ft 217 kts 355°
2026-04-26 22:56 47.89688 -77.38858 4165 ft 214 kts 356°
2026-04-26 22:56 47.91157 -77.39103 4154 ft 211 kts 356°
2026-04-26 22:56 47.92617 -77.39345 4124 ft 211 kts 356°
2026-04-26 22:56 47.94067 -77.39610 4125 ft 210 kts 355°
2026-04-26 22:57 47.95512 -77.39877 4122 ft 208 kts 356°
2026-04-26 22:57 47.96953 -77.40133 4041 ft 211 kts 356°
2026-04-26 22:57 47.98424 -77.40388 3917 ft 214 kts 356°
2026-04-26 22:57 47.99896 -77.40636 3903 ft 211 kts 356°
2026-04-26 22:58 48.01349 -77.40883 3901 ft 209 kts 356°
2026-04-26 22:58 48.02794 -77.41127 3902 ft 209 kts 356°
2026-04-26 22:58 48.04245 -77.41373 3890 ft 211 kts 356°
2026-04-26 22:58 48.05695 -77.41622 3892 ft 209 kts 356°
2026-04-26 22:59 48.07135 -77.41869 3903 ft 209 kts 355°
2026-04-26 22:59 48.08561 -77.42117 3885 ft 209 kts 356°
2026-04-26 22:59 48.10006 -77.42361 3894 ft 210 kts 356°
2026-04-26 22:59 48.11477 -77.42608 3901 ft 209 kts 356°
2026-04-26 23:00 48.12902 -77.42848 3895 ft 208 kts 355°
2026-04-26 23:00 48.14329 -77.43247 3903 ft 208 kts 349°
2026-04-26 23:00 48.15736 -77.43728 3899 ft 208 kts 350°
2026-04-26 23:00 48.17150 -77.44204 3896 ft 207 kts 350°
2026-04-26 23:01 48.18557 -77.44678 3894 ft 207 kts 349°
2026-04-26 23:01 48.19963 -77.45151 3894 ft 207 kts 350°
2026-04-26 23:01 48.21371 -77.45625 3895 ft 207 kts 350°
2026-04-26 23:01 48.22780 -77.46098 3888 ft 208 kts 349°
2026-04-26 23:02 48.24185 -77.46598 3891 ft 207 kts 346°
2026-04-26 23:02 48.25526 -77.47390 3887 ft 208 kts 335°
2026-04-26 23:02 48.26604 -77.48820 3882 ft 211 kts 304°
2026-04-26 23:02 48.27009 -77.50895 3881 ft 214 kts 271°
2026-04-26 23:03 48.26832 -77.53112 3902 ft 213 kts 264°
2026-04-26 23:03 48.26898 -77.55319 3914 ft 213 kts 283°
2026-04-26 23:03 48.27344 -77.57422 3925 ft 211 kts 306°
2026-04-26 23:03 48.28348 -77.59022 3908 ft 210 kts 320°
2026-04-26 23:04 48.29435 -77.60499 3902 ft 210 kts 319°
2026-04-26 23:04 48.30237 -77.62322 3881 ft 212 kts 288°
2026-04-26 23:04 48.30366 -77.64528 3900 ft 213 kts 269°
2026-04-26 23:04 48.30285 -77.66753 3901 ft 213 kts 264°
2026-04-26 23:05 48.29765 -77.68821 3907 ft 213 kts 237°
2026-04-26 23:05 48.28881 -77.70600 3905 ft 211 kts 233°
2026-04-26 23:05 48.27988 -77.72334 3908 ft 209 kts 233°
2026-04-26 23:05 48.27083 -77.73999 3885 ft 209 kts 224°
2026-04-26 23:06 48.25870 -77.75123 3890 ft 201 kts 204°
2026-04-26 23:06 48.24587 -77.75942 3881 ft 201 kts 202°
2026-04-26 23:06 48.23292 -77.76753 3894 ft 203 kts 202°
2026-04-26 23:06 48.21973 -77.77578 3888 ft 207 kts 202°
2026-04-26 23:07 48.20655 -77.78417 3890 ft 206 kts 203°
2026-04-26 23:07 48.19331 -77.79267 3843 ft 209 kts 203°
2026-04-26 23:07 48.17983 -77.80126 3702 ft 210 kts 203°
2026-04-26 23:07 48.16737 -77.80932 3447 ft 184 kts 203°
2026-04-26 23:08 48.15545 -77.81346 2964 ft 179 kts 172°
2026-04-26 23:08 48.14375 -77.80868 2711 ft 163 kts 167°
2026-04-26 23:08 48.13297 -77.80585 2560 ft 157 kts 168°
2026-04-26 23:08 48.12229 -77.80301 2349 ft 151 kts 168°
2026-04-26 23:09 48.11209 -77.79989 2069 ft 146 kts 167°
2026-04-26 23:09 48.10235 -77.79691 1872 ft 139 kts 167°
2026-04-26 23:09 48.09305 -77.79402 1692 ft 138 kts 169°
2026-04-26 23:09 48.08350 -77.79129 1512 ft 142 kts 170°
2026-04-26 23:10 48.07375 -77.78854 1324 ft 143 kts 169°
2026-04-26 23:10 48.06423 -77.78581 1123 ft 136 kts 170°
2026-04-26 23:10 48.05575 -77.78335 1101 ft 108 kts 171°
2026-04-26 23:10 48.05257 -77.78245 1104 ft 33 kts 169°
2026-04-26 23:11 48.05030 -77.78181 1105 ft 33 kts 169°
2026-04-26 23:11 48.04802 -77.78116 1102 ft 34 kts 168°
2026-04-26 23:11 48.04574 -77.78050 1102 ft 29 kts 173°
2026-04-26 23:11 48.04419 -77.78123 1101 ft 22 kts 215°
2026-04-26 23:12 48.04344 -77.78202 1099 ft 10 kts 214°
2026-04-26 23:12 48.04325 -77.78240 1094 ft 2 kts 172°
2026-04-26 23:12 48.04348 -77.78193 1098 ft 12 kts 34°
2026-04-26 23:12 48.04365 -77.78175 1098 ft 0 kts 34°
2026-04-26 23:13 48.04432 -77.78107 1101 ft 16 kts 34°
2026-04-26 23:13 48.04537 -77.78039 1100 ft 17 kts 348°
2026-04-26 23:13 48.04705 -77.78085 1104 ft 30 kts 349°
2026-04-26 23:14 48.04905 -77.78142 1103 ft 28 kts 350°
2026-04-26 23:14 48.05093 -77.78197 1106 ft 27 kts 349°
2026-04-26 23:14 48.05266 -77.78248 1103 ft 23 kts 350°
2026-04-26 23:14 48.05314 -77.78391 1104 ft 14 kts 257°
2026-04-26 23:15 48.05298 -77.78523 1105 ft 9 kts 262°
2026-04-26 23:15 48.05297 -77.78530 1105 ft 0 kts 262°
2026-04-26 23:15 48.05294 -77.78554 1102 ft 11 kts 255°
2026-04-26 23:16 48.05290 -77.78573 1104 ft 0 kts 247°
2026-04-26 23:16 48.05289 -77.78574 1104 ft 1 kts 246°
2026-04-26 23:16 48.05288 -77.78578 1106 ft 0 kts 261°
2026-04-26 23:18 48.05279 -77.78590 1103 ft 5 kts 202°
2026-04-26 23:18 48.05246 -77.78594 1103 ft 3 kts 226°
2026-04-26 23:18 48.05251 -77.78638 1104 ft 2 kts 303°
2026-04-26 23:18 48.05258 -77.78653 1104 ft 0 kts 304°